| time (UTC) | temp F | wind direction | speed MPH | gust MPH | rain 1hr in | rain 24hr in | rain mn in | humidity % | barometer mb |
| 20260504000152 | 80 | 202 | 7.0 | 10.0 | 0.00 | 0.00 | 0.00 | 34 | 1018.9 |
| 20260503235132 | 80 | 152 | 7.0 | 10.0 | 0.00 | 0.00 | 0.00 | 31 | 1018.9 |
| 20260503234134 | 80 | 147 | 3.0 | 5.0 | 0.00 | 0.00 | 0.00 | 32 | 1019.1 |
| 20260503233152 | 81 | 172 | 9.0 | 13.0 | 0.00 | 0.00 | 0.00 | 31 | 1019.1 |
| 20260503232132 | 81 | 117 | 3.0 | 3.0 | 0.00 | 0.00 | 0.00 | 33 | 1019.1 |
| 20260503231132 | 82 | 171 | 7.0 | 8.0 | 0.00 | 0.00 | 0.00 | 31 | 1019.2 |
| 20260503230132 | 81 | 194 | 6.0 | 10.0 | 0.00 | 0.00 | 0.00 | 31 | 1019.2 |
| 20260503225133 | 82 | 125 | 9.0 | 10.0 | 0.00 | 0.00 | 0.00 | 30 | 1019.2 |
| 20260503224132 | 82 | 135 | 3.0 | 5.0 | 0.00 | 0.00 | 0.00 | 31 | 1019.3 |
| 20260503223132 | 82 | 207 | 3.0 | 8.0 | 0.00 | 0.00 | 0.00 | 29 | 1019.5 |
| 20260503222132 | 82 | 170 | 5.0 | 11.0 | 0.00 | 0.00 | 0.00 | 30 | 1019.4 |
| 20260503221133 | 82 | 201 | 5.0 | 7.0 | 0.00 | 0.00 | 0.00 | 29 | 1019.7 |
| 20260503220133 | 82 | 206 | 7.0 | 9.0 | 0.00 | 0.00 | 0.00 | 29 | 1019.9 |
| 20260503215153 | 82 | 165 | 4.0 | 5.0 | 0.00 | 0.00 | 0.00 | 29 | 1019.7 |
| 20260503214132 | 83 | 199 | 5.0 | 9.0 | 0.00 | 0.00 | 0.00 | 29 | 1019.9 |
| 20260503213132 | 82 | 172 | 4.0 | 7.0 | 0.00 | 0.00 | 0.00 | 30 | 1020.0 |
| 20260503212132 | 82 | 104 | 10.0 | 13.0 | 0.00 | 0.00 | 0.00 | 30 | 1020.1 |
| 20260503211133 | 83 | 217 | 8.0 | 9.0 | 0.00 | 0.00 | 0.00 | 30 | 1020.4 |
| 20260503210132 | 83 | 195 | 7.0 | 9.0 | 0.00 | 0.00 | 0.00 | 30 | 1020.3 |
| 20260503205152 | 82 | 136 | 3.0 | 5.0 | 0.00 | 0.00 | 0.00 | 32 | 1020.4 |
| 20260503204132 | 82 | 213 | 8.0 | 9.0 | 0.00 | 0.00 | 0.00 | 32 | 1020.8 |
| 20260503203132 | 82 | 141 | 14.0 | 18.0 | 0.00 | 0.00 | 0.00 | 33 | 1021.0 |
| 20260503202132 | 83 | 189 | 5.0 | 8.0 | 0.00 | 0.00 | 0.00 | 33 | 1021.2 |
| 20260503201133 | 81 | 115 | 3.0 | 5.0 | 0.00 | 0.00 | 0.00 | 34 | 1021.4 |
| 20260503200133 | 82 | 193 | 20.0 | 24.0 | 0.00 | 0.00 | 0.00 | 32 | 1021.5 |
| 20260503195132 | 82 | 127 | 5.0 | 7.0 | 0.00 | 0.00 | 0.00 | 32 | 1021.8 |
| 20260503194153 | 80 | 214 | 9.0 | 10.0 | 0.00 | 0.00 | 0.00 | 31 | 1022.0 |
| 20260503193132 | 80 | 251 | 5.0 | 7.0 | 0.00 | 0.00 | 0.00 | 33 | 1022.0 |
| 20260503192133 | 82 | 133 | 3.0 | 5.0 | 0.00 | 0.00 | 0.00 | 33 | 1022.1 |
| 20260503191133 | 81 | 185 | 7.0 | 10.0 | 0.00 | 0.00 | 0.00 | 31 | 1022.3 |
| 20260503190133 | 81 | 195 | 9.0 | 14.0 | 0.00 | 0.00 | 0.00 | 33 | 1022.3 |
| 20260503185132 | 80 | 150 | 5.0 | 8.0 | 0.00 | 0.00 | 0.00 | 33 | 1022.5 |
| 20260503184152 | 80 | 199 | 12.0 | 14.0 | 0.00 | 0.00 | 0.00 | 34 | 1022.6 |
| 20260503183153 | 80 | 158 | 8.0 | 11.0 | 0.00 | 0.00 | 0.00 | 35 | 1022.8 |
| 20260503182133 | 80 | 195 | 6.0 | 7.0 | 0.00 | 0.00 | 0.00 | 36 | 1023.0 |
| 20260503181152 | 79 | 256 | 12.0 | 13.0 | 0.00 | 0.00 | 0.00 | 35 | 1023.3 |
| 20260503180133 | 80 | 193 | 13.0 | 17.0 | 0.00 | 0.00 | 0.00 | 36 | 1023.4 |
| 20260503175132 | 80 | 60 | 8.0 | 11.0 | 0.00 | 0.00 | 0.00 | 39 | 1023.4 |
| 20260503174133 | 79 | 121 | 8.0 | 10.0 | 0.00 | 0.00 | 0.00 | 38 | 1023.6 |
| 20260503173124 | 78 | 204 | 9.0 | 10.0 | 0.00 | 0.00 | 0.00 | 39 | 1023.8 |
| 20260503172131 | 78 | 239 | 11.0 | 16.0 | 0.00 | 0.00 | 0.00 | 39 | 1023.9 |
| 20260503171123 | 78 | 186 | 4.0 | 6.0 | 0.00 | 0.00 | 0.00 | 39 | 1024.1 |
| 20260503170132 | 78 | 223 | 8.0 | 9.0 | 0.00 | 0.00 | 0.00 | 39 | 1024.2 |
| 20260503160115 | 75 | 221 | 11.0 | 16.0 | 0.00 | 0.00 | 0.00 | 42 | 1024.7 |
| 20260503150120 | 73 | 220 | 11.0 | 15.0 | 0.00 | 0.00 | 0.00 | 45 | 1024.8 |
| 20260503140136 | 69 | 154 | 4.0 | 7.0 | 0.00 | 0.00 | 0.00 | 54 | 1024.6 |
| 20260503131040 | 63 | 162 | 2.0 | 2.0 | 0.00 | 0.00 | 0.00 | 64 | 1024.5 |
| 20260503081021 | 60 | 153 | 1.0 | 1.0 | 0.00 | 0.00 | 0.00 | 60 | 1023.2 |
| 20260503072028 | 61 | 171 | 4.0 | 5.0 | 0.00 | 0.00 | 0.00 | 58 | 1023.5 |
| 20260503071040 | 60 | 203 | 4.0 | 5.0 | 0.00 | 0.00 | 0.00 | 59 | 1023.6 |
| 20260503055005 | 61 | 109 | 2.0 | 2.0 | 0.00 | 0.00 | 0.00 | 57 | 1023.5 |
| 20260503054013 | 62 | 111 | 0.0 | 1.0 | 0.00 | 0.00 | 0.00 | 56 | 1023.3 |
| 20260503053004 | 62 | 0.0 | 0.0 | 0.00 | 0.00 | 0.00 | 56 | 1023.4 | |
| 20260503052013 | 62 | 0.0 | 0.0 | 0.00 | 0.00 | 0.00 | 55 | 1023.4 | |
| 20260503051004 | 63 | 142 | 2.0 | 3.0 | 0.00 | 0.00 | 0.00 | 55 | 1023.3 |
| 20260503050013 | 62 | 154 | 2.0 | 2.0 | 0.00 | 0.00 | 0.00 | 56 | 1023.5 |
| 20260503045005 | 62 | 135 | 0.0 | 1.0 | 0.00 | 0.00 | 0.00 | 56 | 1023.2 |
| 20260503044032 | 62 | 0.0 | 0.0 | 0.00 | 0.00 | 0.00 | 57 | 1023.4 | |
| 20260503043004 | 63 | 139 | 1.0 | 2.0 | 0.00 | 0.00 | 0.00 | 57 | 1023.5 |
| 20260503042012 | 63 | 132 | 2.0 | 3.0 | 0.00 | 0.00 | 0.00 | 57 | 1023.3 |
| 20260503041004 | 63 | 140 | 2.0 | 2.0 | 0.00 | 0.00 | 0.00 | 57 | 1023.3 |
| 20260503040012 | 63 | 150 | 2.0 | 2.0 | 0.00 | 0.00 | 0.00 | 57 | 1023.2 |
| 20260503035005 | 63 | 144 | 2.0 | 2.0 | 0.00 | 0.00 | 0.00 | 57 | 1023.3 |
| 20260503034012 | 63 | 144 | 1.0 | 1.0 | 0.00 | 0.00 | 0.00 | 56 | 1023.5 |
| 20260503033025 | 64 | 144 | 2.0 | 2.0 | 0.00 | 0.00 | 0.00 | 55 | 1023.3 |
| 20260503032033 | 64 | 131 | 1.0 | 2.0 | 0.00 | 0.00 | 0.00 | 54 | 1023.2 |
| 20260503031025 | 64 | 138 | 1.0 | 2.0 | 0.00 | 0.00 | 0.00 | 55 | 1023.3 |
| 20260503030012 | 64 | 150 | 1.0 | 1.0 | 0.00 | 0.00 | 0.00 | 55 | 1022.8 |
| 20260503025004 | 66 | 153 | 2.0 | 2.0 | 0.00 | 0.00 | 0.00 | 51 | 1023.0 |
| 20260503024013 | 66 | 143 | 1.0 | 2.0 | 0.00 | 0.00 | 0.00 | 52 | 1022.8 |
| 20260503023005 | 66 | 129 | 1.0 | 2.0 | 0.00 | 0.00 | 0.00 | 50 | 1022.7 |
| 20260503022013 | 67 | 142 | 1.0 | 1.0 | 0.00 | 0.00 | 0.00 | 48 | 1022.8 |
| 20260503021005 | 67 | 142 | 1.0 | 1.0 | 0.00 | 0.00 | 0.00 | 48 | 1022.6 |
| 20260503020033 | 68 | 148 | 1.0 | 1.0 | 0.00 | 0.00 | 0.00 | 48 | 1022.6 |
| 20260503015004 | 68 | 174 | 1.0 | 2.0 | 0.00 | 0.00 | 0.00 | 46 | 1022.6 |
| 20260503014033 | 69 | 144 | 1.0 | 1.0 | 0.00 | 0.00 | 0.00 | 45 | 1022.6 |
| 20260503013004 | 71 | 139 | 1.0 | 1.0 | 0.00 | 0.00 | 0.00 | 43 | 1022.5 |
| 20260503012013 | 72 | 163 | 1.0 | 2.0 | 0.00 | 0.00 | 0.00 | 40 | 1022.3 |
| 20260503011004 | 73 | 156 | 2.0 | 2.0 | 0.00 | 0.00 | 0.00 | 39 | 1022.3 |
| 20260503010013 | 73 | 0.0 | 0.0 | 0.00 | 0.00 | 0.00 | 38 | 1022.3 | |
| 20260503005005 | 74 | 0.0 | 0.0 | 0.00 | 0.00 | 0.00 | 37 | 1022.2 | |
| 20260503004013 | 75 | 176 | 2.0 | 2.0 | 0.00 | 0.00 | 0.00 | 37 | 1022.0 |
| 20260503003005 | 76 | 163 | 2.0 | 2.0 | 0.00 | 0.00 | 0.00 | 34 | 1022.0 |
| 20260503002013 | 76 | 0.0 | 0.0 | 0.00 | 0.00 | 0.00 | 34 | 1022.0 | |
| 20260503001025 | 76 | 0.0 | 0.0 | 0.00 | 0.00 | 0.00 | 35 | 1022.0 |